Weather History for Hoquiam, WA

Change the Weather History Date:

Saturday, January 14, 2012

  Actual Average Record
Temperature  
Mean Temperature 38 °F 43 °F  
Max Temperature 42 °F 47 °F 57 °F (1965)
Min Temperature 33 °F 38 °F 25 °F (2007)
Degree Days  
Heating Degree Days 28 22  
Month to date heating degree days 319  
Cooling Degree Days 0 0  
Month to date cooling degree days 0  
Year to date cooling degree days 0  
Moisture  
Dew Point 34 °F    
Average Humidity 87    
Maximum Humidity 100    
Minimum Humidity 60    
Precipitation  
Precipitation 0.38 in 0.35 in 2.40 in (1976)
Month to date precipitation 4.92  
Year to date precipitation 4.92  
Sea Level Pressure  
Sea Level Pressure 30.00 in    
Wind  
Wind Speed 7 mph (WSW)    
Max Wind Speed 24 mph    
Max Gust Speed 33 mph    
Visibility 6 miles    
Events Rain , Snow    
T = Trace of Precipitation, MM = Missing Value Source: NWS Daily Summary

Daily Weather History Graph

Daily Weather History Graph

Search for Another Location

Airport:

Trip Planner

Search our weather history database for the weather conditions in past years. The results will help you decide how hot, cold, wet, or windy it might be!

Date:

Astronomy

Jan. 14, 2012 Rise Set
Actual Time 7:57 AM PST 4:51 PM PST
Civil Twilight 7:23 AM PST 5:26 PM PST
Nautical Twilight 6:45 AM PST 6:04 PM PST
Astronomical Twilight 6:09 AM PST 6:40 PM PST
Moon 11:49 PM PST (1/14) 10:19 AM PST (1/14)
Length of Visible Light 10h 02m
Length of Day
8h 54m
Waning Gibbous, 67% of the Moon is Illuminated
Jan 14
Waning Gibbous
Jan 16
Last Quarter
Jan 22
New
Jan 30
First Quarter
Feb 7
Full

Hourly Weather History & Observations

Time (PST) Temp. Windchill Dew Point Humidity Pressure Visibility Wind Dir Wind Speed Gust Speed Precip Events Conditions
12:53 AM 37.9 °F - 34.0 °F 86% 30.06 in 10.0 mi Calm Calm - N/A   Overcast
1:53 AM 37.9 °F - 34.0 °F 86% 30.04 in 10.0 mi Calm Calm - N/A   Overcast
2:53 AM 37.9 °F - 35.1 °F 89% 30.04 in 10.0 mi Calm Calm - N/A   Overcast
3:46 AM 37.4 °F - 35.6 °F 93% 30.01 in 5.0 mi Calm Calm - 0.00 in Rain Light Rain
3:53 AM 37.9 °F - 35.1 °F 89% 30.02 in 6.0 mi Calm Calm - 0.00 in Rain Light Rain
4:01 AM 37.4 °F - 35.6 °F 93% 30.01 in 6.0 mi Calm Calm - 0.01 in Rain Light Rain
4:53 AM 37.9 °F - 37.0 °F 97% 30.01 in 5.0 mi Calm Calm - 0.11 in Rain Light Rain
5:37 AM 37.4 °F - 37.4 °F 100% 29.98 in 3.0 mi Calm Calm - 0.04 in Rain Light Rain
5:46 AM 39.2 °F - 37.4 °F 93% 29.98 in 4.0 mi Calm Calm - 0.05 in Rain Light Rain
5:53 AM 39.0 °F - 37.9 °F 96% 29.99 in 4.0 mi Calm Calm - 0.05 in Rain Light Rain
6:43 AM 41.0 °F 38.0 °F 39.2 °F 93% 29.97 in 2.5 mi SW 4.6 mph - N/A Rain Light Rain
6:53 AM 41.0 °F - 39.2 °F 93% 29.96 in 3.0 mi Calm Calm - N/A Rain Light Rain
7:33 AM 39.2 °F 35.9 °F 39.2 °F 100% 29.95 in 5.0 mi West 4.6 mph - 0.03 in Rain Light Rain
7:53 AM 39.9 °F 35.8 °F 39.0 °F 97% 29.96 in 7.0 mi SW 5.8 mph - 0.04 in Rain Light Rain
8:10 AM 41.0 °F 36.4 °F 39.2 °F 93% 29.94 in 5.0 mi SW 6.9 mph - 0.01 in Rain Light Rain
8:38 AM 42.8 °F 35.4 °F 41.0 °F 93% 29.93 in 6.0 mi SW 15.0 mph - 0.02 in Rain Light Rain
8:53 AM 41.0 °F 30.9 °F 39.0 °F 93% 29.95 in 3.0 mi West 24.2 mph 32.2 mph 0.04 in Rain Light Rain
9:08 AM 39.2 °F 29.0 °F 37.4 °F 93% 29.95 in 3.0 mi West 21.9 mph 28.8 mph 0.02 in Rain Light Rain
9:16 AM 39.2 °F 28.5 °F 37.4 °F 93% 29.96 in 3.0 mi West 24.2 mph 28.8 mph 0.03 in Rain Light Rain
9:23 AM 39.2 °F 29.3 °F 37.4 °F 93% 29.97 in 3.0 mi West 20.7 mph 31.1 mph 0.03 in Rain Light Rain
9:33 AM 39.2 °F 29.6 °F 35.6 °F 87% 29.97 in 3.0 mi West 19.6 mph 33.4 mph 0.05 in Rain Light Rain
9:41 AM 39.2 °F 29.3 °F 35.6 °F 87% 29.98 in 4.0 mi West 20.7 mph 27.6 mph 0.05 in Rain Light Rain
9:53 AM 39.0 °F 28.8 °F 36.0 °F 89% 29.99 in 6.0 mi West 21.9 mph 31.1 mph 0.05 in Rain Light Rain
10:41 AM 39.2 °F 31.2 °F 35.6 °F 87% 29.99 in 10.0 mi West 13.8 mph - 0.02 in   Overcast
10:53 AM 39.9 °F 31.4 °F 34.0 °F 79% 30.00 in 10.0 mi WSW 16.1 mph 21.9 mph 0.02 in   Overcast
11:53 AM 41.0 °F 30.9 °F 33.1 °F 73% 30.01 in 10.0 mi West 24.2 mph 31.1 mph 0.00 in Rain Light Rain
12:53 PM 39.2 °F 31.2 °F 33.8 °F 81% 30.00 in 10.0 mi WSW 13.8 mph - N/A   Scattered Clouds
1:53 PM 41.0 °F 31.1 °F 33.1 °F 73% 30.01 in 10.0 mi SW 23.0 mph 28.8 mph N/A   Overcast
2:53 PM 37.0 °F 26.4 °F 32.0 °F 82% 30.02 in 10.0 mi SW 20.7 mph 32.2 mph 0.03 in   Overcast
3:53 PM 39.9 °F 30.8 °F 27.0 °F 60% 30.02 in 10.0 mi WSW 18.4 mph 31.1 mph N/A   Partly Cloudy
4:22 PM 35.6 °F 24.2 °F 30.2 °F 81% 30.04 in 2.5 mi West 21.9 mph 29.9 mph 0.02 in Snow Light Snow
4:27 PM 33.8 °F 24.8 °F 30.2 °F 87% 30.02 in 1.5 mi West 12.7 mph 27.6 mph 0.02 in Snow Light Snow
4:34 PM 33.8 °F 25.8 °F 30.2 °F 87% 30.02 in 3.0 mi WNW 10.4 mph - 0.02 in Snow Light Snow
4:42 PM 35.6 °F 28.0 °F 30.2 °F 81% 30.02 in 9.0 mi West 10.4 mph - 0.02 in   Mostly Cloudy
4:53 PM 35.1 °F 29.3 °F 30.9 °F 85% 30.03 in 10.0 mi WSW 6.9 mph - 0.02 in   Scattered Clouds
5:53 PM 37.0 °F 32.4 °F 30.9 °F 79% 30.02 in 9.0 mi West 5.8 mph - 0.00 in Rain Light Rain
6:37 PM 35.6 °F 27.5 °F 30.2 °F 81% 30.02 in 10.0 mi NW 11.5 mph 20.7 mph 0.01 in   Mostly Cloudy
6:53 PM 35.1 °F 27.4 °F 30.0 °F 82% 30.03 in 8.0 mi West 10.4 mph - 0.01 in Snow Light Snow
7:53 PM 37.0 °F 30.4 °F 30.0 °F 76% 30.02 in 10.0 mi WSW 9.2 mph - 0.00 in   Scattered Clouds
8:53 PM 37.0 °F 28.9 °F 28.9 °F 73% 30.02 in 10.0 mi WSW 12.7 mph - N/A   Overcast
9:34 PM 35.6 °F 25.9 °F 32.0 °F 87% 30.01 in 9.0 mi SW 16.1 mph - 0.00 in Rain Light Freezing Rain
9:53 PM 37.0 °F 27.7 °F 30.9 °F 79% 30.02 in 10.0 mi SW 16.1 mph - 0.00 in   Partly Cloudy
10:17 PM 33.8 °F 27.0 °F 30.2 °F 87% 30.02 in 4.0 mi NNW 8.1 mph - 0.01 in Snow Light Snow
10:40 PM 33.8 °F - 30.2 °F 87% 30.02 in 9.0 mi Calm Calm - 0.01 in   Overcast
10:48 PM 33.8 °F 29.6 °F 30.2 °F 87% 30.02 in 10.0 mi East 4.6 mph - 0.01 in Rain Light Freezing Rain
10:53 PM 34.0 °F 28.8 °F 30.9 °F 89% 30.03 in 10.0 mi East 5.8 mph - 0.01 in Rain Light Freezing Rain
11:16 PM 33.8 °F 29.6 °F 32.0 °F 93% 30.02 in 10.0 mi Variable 4.6 mph - 0.00 in   Overcast
11:36 PM 33.8 °F - 30.2 °F 87% 30.03 in 2.5 mi Calm Calm - 0.00 in Snow Light Snow
11:44 PM 33.8 °F - 32.0 °F 93% 30.03 in 1.2 mi Calm Calm - 0.00 in Snow Light Snow
11:50 PM 33.8 °F - 30.2 °F 87% 30.02 in 2.0 mi Calm Calm - 0.00 in Snow Light Snow
11:51 PM 33.1 °F - 30.9 °F 92% 30.04 in 2.5 mi Calm Calm - 0.00 in Snow Light Snow
11:54 PM 33.8 °F - 30.2 °F 87% 30.02 in 5.0 mi Calm Calm - 0.00 in Snow Light Snow